Погода в Житомире

Погода в Житомире : погода сейчас, прогноз погоды и архив. Всё, что Вы хотите узнать о погоде в Житомире!

Хотите узнать прогноз погоды в Житомире? Тогда Вам сюда: Погода в Житомире

Поиск расширенной информации на нашем сайте:

Другие новости

Новости СМИ2

Главная страница сайта

Новости сайта

02.10.2013

Напоминаем, что на нашем новом сайте вы можете получить высокодетализированные прогнозы погоды по пунктам России, СНГ и мира (включающие важные для авиации метеовеличины, такие как направление и скорость ветра, видимость, явления погоды, количество и форма облачности, нижняя и верхняя граница облачности), а также ознакомиться с разнообразными материалами по авиационной метеорологии и подборкой полезных ссылок на эту тему.

Сайт Метеоцентр.Азия посвящён разработке технологий оптимизации авиаметеорологического обслуживания, включая проектирование и перспективное создание нескольких автоматизированных авиаметеорологических систем:
- система выпуска высокодетальных прогностических карт явлений погоды для нижнего воздушного пространства по России и ближнему зарубежью;
- система верификации прогнозов TAF (выпускаемых синоптиками официальных АМСГ РФ и ближнего зарубежья) и AUTOTAF (выпускаемых сайтом Метеоцентр.Азия) - выявление ошибок, онлайн-сопоставление с фактической погодой METAR, автоматическое внесение коррективов в прогнозы при резком отклонении фактической погоды от прогноза, подсчёт оправдываемости прогнозов по элементам и в целом;
- система обработки, анализа и отображения авиаметеорологической информации для применения провайдерами метеорологической информации.

Рекомендуем: курсы повышения квалификации радиационная безопасность в Москве

Погода в Житомире - сегодня

Время (UTC), дата Ветер
(°,м/с) 
Видим.   Явления Облачность Т
(°С)
Тd
(°С)
f(%) Тe
(°С)
Pmin
(гПа)
dP
(гПа)
Po
(мм)
O2
(г/м3)
Тmin Tmax R s Состояние
почвы
18 18.01.17 300 (СЗ) 4000 м  дымка{снег}  10/10 720 м 
[Sc]
-5 -6.3 91 -5  1041.3  0.7  760  312    -3.9  0.0     
21 18.01.17 290 (З) 4000 м  дымка  10/10 800 м 
[Sc]
-4.7 -6 91 -4  1041.2  760  312           
00 19.01.17 320 (СЗ) 4000 м  слаб. снег  10/10 300 м 
[Frnb]
-4.7 -6 91 -4  1040.7  -0.5  759  312      0.0     
03 19.01.17 310 (СЗ) 4000 м  дымка{снег}  10/10 330 м 
[St]
-4.5 -5.8 91 -4  1040.3  -0.4  759  312           
06 19.01.17 280 (З) 10 км  {снег}  10/10 630 м 
[Sc]
-5.2 -8.9 75 -5  1040.6  0.2  759  313  -5.2    0.0  15  равномерный
мокрый или
старый снег
100% 
09 19.01.17 320 (СЗ) 10 км  {снег}  9/4 600 м средняя 
[Sc|Ac trans]
-4.7 -7.9 78 -4  1040.6  0.1  759  312           
12 19.01.17 280 (З) 10 км  {снег}  10/10 540 м 
[Sc]
-4.1 -9.1 68 -5  1039  -1.5  758  311      0.0     
15 19.01.17 300 (СЗ) 10 км    ясно 
-5.2 -9.8 70 -5  1038.2  -0.9  757  312           
18 19.01.17 250 (З) 10 км    ясно 
-8.9 -11.3 83 -11  1037.4  -1.2  756  316    -4.1  0.0     
21 19.01.17 250 (З) 4000 м  дымка  ясно 
-10 -11.2 91 -12  1036.8  -0.7  756  317           
00 20.01.17 250 (З) 10 км    10/0 средняя 
[Ac und]
-9.4 -11.5 85 -12  1035.1  -1.6  755  316           
03 20.01.17 260 (З) 10 км    10/6 300 м средняя 
[St|Ac und]
-8.2 -11.4 78 -10  1033.2  -1.7  753  314           
06 20.01.17 260 (З) 10 км    10/8 330 м средняя 
[St|Ac und]
-8.3 -10.6 83 -10  1032.1  -1.1  753  314  -10      14  равномерный
мокрый или
старый снег
100% 
09 20.01.17 270 (З) 10 км    10/10 300 м 
[St]
-5.8 -8 84 -7  1031.5  -0.3  752  311           
12 20.01.17 280 (З) 1000 м  слаб. переохл. морось (гололёд) [диам. гололёда 0 мм]  10/10 240 м 
[St]
-4.7 -5.6 93 -7  1029.7  -1.6  751  309      0.0     
15 20.01.17 280 (З) 4000 м  снежные зёрна{морось}  10/10 270 м 
[St]
-3.7 -6.2 83 -3  1029.1  -0.5  751  307           
18 20.01.17 310 (СЗ) 10 км  в посл. час морось{снег}  10/10 360 м 
[St]
-3.4 -5.2 87 -3  1028.6  -0.5  750  307    -3.4  0.3     
21 20.01.17 270 (З) 4000 м  снежные зёрна  10/10 240 м 
[St]
-2.9 -4.9 86 -4  1027.7  -0.8  750  306           
00 21.01.17 280 (З) 2000 м  снежные зёрна  10/10 180 м 
[St]
-2.5 -3.8 91 -4  1026.3  -1.3  749  305      0.3     
03 21.01.17 280 (З) 4000 м  снежные зёрна  10/10 300 м 
[St]
-1.8 -2.9 92 -3  1025.1  -1.1  748  304           
06 21.01.17 310 (СЗ) 4000 м  дымка{снег}  10/10 300 м 
[St]
-1 -2.3 91 -4  1024.8  -0.2  748  303  -3.4    0.3  15  равномерный
мокрый или
старый снег
100% 
09 21.01.17 310 (СЗ) 10 км  слаб. снег  10/10 540 м 
[Sc]
-0.1 -2.1 86 -2  1025.4  0.7  748  302           
12 21.01.17 310 (СЗ) 10 км  {снег}  10/10 360 м 
[St]
+0.7 -1 88 -1  1024.9  -0.4  748  301      0.0     
15 21.01.17 320 (СЗ) 4000 м  дымка  10/10 330 м 
[St]
+0.8 -0.3 92 1025.9  749  301           
18 21.01.17 330 (СЗ) 4000 м  слаб. морось  10/10 210 м 
[St]
+0.8 +0.3 96 1027.9  1.9  750  301    +1  0.0     
Время (UTC), дата Ветер
(°,м/с) 
Видим.   Явления Облачность Т
(°С)
Тd
(°С)
f(%) Тe
(°С)
Pmin
(гПа)
dP
(гПа)
Po
(мм)
O2
(г/м3)
Тmin Tmax R s Состояние
почвы

Для получения пояснительной информации подведите курсор к названию столбца.

ПОГОДА в Житомире - архив

Всё, что Вы хотите узнать о погоде в Житомире - удобно и подробно!

Выберите нужную дату (начиная с 1 января 2015* года) и нажмите кнопку "Найти".
Будут отображены архивные сводки погоды по пункту Житомир, начиная с указанной даты.


Отображать данные в формате CSV (для использования в таблицах Excel)


Внимание! Наш архив погоды предназначен исключительно для личного некоммерческого использования в познавательных целях. Если Вам необходимы официальные справки о состоянии погоды (для производственных, юридических, коммерческих и т.п. целей), обращайтесь в органы Росгидромета.

*Примечание: данная дата относится к архиву по метеостанциям СССР (Россия, СНГ, Балтия).
Архив по метеостанциям Зарубежной Европы и Азии (кроме Китая) хранится 10 дней, по другим регионам земного шара (Китай, Африка, Америка, Австралия, Океания) - 1 день.

Житомир - район местоположения метеостанции


Название, широта, долгота, высота метеостанции:
Житомир 50.2°ш. 28.7°д. 224 м над ур. моря [Украина]

Дополнительная информация

В oтличие oт бoльшинства пoгoдных сайтoв мы публикуем пoдрoбную метеoинфoрмацию в детальнoм прoфессиoнальнoм фoрмате.

Характеристики температуры и влажнoсти вoздуха измеряются на высoте 2 м в тени вдали oт зданий и деревьев.
Скoрoсть ветра измеряется на высoте 10 м (на урoвне рoста челoвека скoрoсть ветра ниже в 1.5-2 раза). Если метеoстанция нахoдится в гoрoде или в лесу, тo скoрoсть ветра занижена на 2-4 м/с пo сравнению с oткрытым местoм. Скoрoсть ветра над акватoриями крупных рек и oзёр, а также на вершинах хoлмoв на 2-5 м/с выше, чем в oбычных услoвиях.
Атмoсфернoе давление в разных тoчках местнoсти мoжет значительнo oтличаться oт давления на метеoстанции, в зависимoсти oт услoвий рельефа (при пoдъёме на 10 м давление пoнижается примернo на 1 мм рт.ст.).